Location: Riverside Cemetery
(38.3047°N, 99.7773°W)
Time: 11:38:39
(UTC+00:00)

Okean 2 Rocket - Pass Details

Date: 19 September 2020
Orbit: 616 x 642 km, 82.5° (Epoch: 31 October)

Event Time Altitude Azimuth Distance (km) Brightness Sun altitude
Rises 02:07:09 0° 186° (S) 2,931 6.4 -17.4°
Reaches altitude 10° 02:09:23 10° 187° (S) 2,025 5.6 -17.8°
Maximum altitude 02:13:53 87° 271° (W) 645 3.1 -18.7°
Drops below altitude 10° 02:18:25 10° 7° (N) 2,029 5.8 -19.5°
Sets 02:20:39 0° 7° (N) 2,937 6.7 -19.9°
